This demonstration page uses our WeatherBlox Daily Observations layout. Learn more.

Left ArrowRight Arrow

Hourly Observations for November 13, 2018

Temp ( °F °C ) Dew Point ( °F °C ) Humidity (%) Winds ( mph kmh ) Pressure ( in mb ) Visibility ( mi km ) Precip ( " mm )
12:57 am 00:57 Clear 12 -11.1 7 -13.9 80 80 W 5 7 30.60 1036 10 16 0.00 0.00
1:57 am 01:57 Clear 16 -8.9 10 -12.2 77 77 WSW 8 13 30.59 1036 10 16 0.00 0.00
2:57 am 02:57 Clear 17 -8.3 10 -12.2 74 74 W 8 13 30.57 1035 10 16 0.00 0.00
3:57 am 03:57 Clear 16 -8.9 10 -12.2 77 77 WSW 7 11 30.56 1035 10 16 0.00 0.00
4:57 am 04:57 Clear 15 -9.4 10 -12.2 80 80 WSW 5 7 30.55 1035 10 16 0.00 0.00
5:57 am 05:57 Clear 14 -10 9 -12.8 80 80 WSW 3 6 30.55 1035 10 16 0.00 0.00
6:57 am 06:57 Clear 13 -10.6 9 -12.8 84 84 SW 5 7 30.55 1035 10 16 0.00 0.00
7:57 am 07:57 Sunny 15 -9.4 10 -12.2 80 80 W 3 6 30.56 1035 10 16 0.00 0.00
8:57 am 08:57 Sunny 21 -6.1 15 -9.4 78 78 SSW 3 6 30.57 1035 10 16 0.00 0.00
9:57 am 09:57 Sunny 27 -2.8 18 -7.8 69 69 undefined N/A 30.57 1035 10 16 0.00 0.00
10:57 am 10:57 Sunny 33 0.6 16 -8.9 49 49 NW 7 11 30.57 1035 10 16 0.00 0.00
11:57 am 11:57 Sunny 38 3.3 18 -7.8 44 44 SW 6 9 30.54 1034 10 16 0.00 0.00
12:57 pm 12:57 Sunny 41 5 14 -10 33 33 WSW 8 13 30.50 1033 10 16 0.00 0.00
1:57 pm 13:57 Sunny 44 6.7 13 -10.6 28 28 VRB 7 11 30.47 1032 10 16 0.00 0.00
2:57 pm 14:57 Sunny 45 7.2 11 -11.7 25 25 W 7 11 30.46 1032 10 16 0.00 0.00
3:57 pm 15:57 Sunny 43 6.1 18 -7.8 37 37 SSW 10 17 30.45 1031 10 16 0.00 0.00
4:57 pm 16:57 Sunny 40 4.4 20 -6.7 45 45 SW 7 11 30.46 1031 10 16 0.00 0.00
5:57 pm 17:57 Clear 33 0.6 21 -6.1 61 61 SSW 7 11 30.47 1032 10 16 0.00 0.00
6:57 pm 18:57 Clear 35 1.7 19 -7.2 52 52 SW 6 9 30.47 1032 10 16 0.00 0.00
7:57 pm 19:57 Clear 28 -2.2 21 -6.1 75 75 S 5 7 30.48 1032 10 16 0.00 0.00
8:57 pm 20:57 Cloudy 35 1.7 21 -6.1 57 57 SW 7 11 30.45 1031 10 16 0.00 0.00
9:57 pm 21:57 Cloudy 35 1.7 19 -7.2 52 52 SW 6 9 30.45 1031 10 16 0.00 0.00
10:57 pm 22:57 Clear 32 0 21 -6.1 64 64 SW 8 13 30.44 1031 10 16 0.00 0.00
11:57 pm 23:57 Clear 31 -0.6 22 -5.6 69 69 SW 8 13 30.43 1031 10 16 0.00 0.00

Powered by AerisWeather